When you browse on this site, cookies collect data to enhance your experience and personalize the content and advertising you see.
Visit our Privacy Policy to learn more. By continuing to use the site, you agree to this use of cookies and data.

Hourly Weather Valevka

Today, 16 July, Thursday

Time Temperature Precipitation Wind Pressure Humidity
00:00 +13°C° 0 mm 1 mps 741 mmHg 86%
01:00 +13°C° 0 mm 1 mps 741 mmHg 88%
02:00 +13°C° 0 mm 1 mps 741 mmHg 90%
03:00 +13°C° 0 mm 1 mps 741 mmHg 90%
04:00 +13°C° 0 mm 1 mps 740 mmHg 91%
05:00 +13°C° 0 mm 1 mps 740 mmHg 92%
06:00 +15°C° 0 mm 1 mps 740 mmHg 88%
07:00 +16°C° 0 mm 1 mps 740 mmHg 84%
08:00 +19°C° 0 mm 1 mps 741 mmHg 80%
09:00 +20°C° 0.2 mm 1 mps 740 mmHg 75%
10:00 +22°C° 0.2 mm 1 mps 740 mmHg 70%
11:00 +23°C° 0.2 mm 1 mps 740 mmHg 65%
12:00 +24°C° 0.1 mm 1 mps 740 mmHg 61%
13:00 +22°C° 0.1 mm 0 mps 740 mmHg 58%
14:00 +23°C° 0.1 mm 0 mps 740 mmHg 55%
15:00 +25°C° 0.2 mm 1 mps 740 mmHg 57%
16:00 +24°C° 0.2 mm 1 mps 739 mmHg 59%
17:00 +24°C° 0.2 mm 1 mps 739 mmHg 61%
18:00 +23°C° 0.2 mm 1 mps 739 mmHg 67%
19:00 +21°C° 0.2 mm 1 mps 739 mmHg 74%
20:00 +18°C° 0.2 mm 2 mps 739 mmHg 81%
21:00 +17°C° 0.1 mm 2 mps 739 mmHg 84%
22:00 +16°C° 0.1 mm 2 mps 740 mmHg 87%
23:00 +16°C° 0.1 mm 2 mps 740 mmHg 90%

Tomorrow, 17 July, Friday

Time Temperature Precipitation Wind Pressure Humidity
00:00 +15°C° 0.1 mm 2 mps 740 mmHg 91%
01:00 +15°C° 0.1 mm 2 mps 740 mmHg 92%
02:00 +14°C° 0.1 mm 2 mps 740 mmHg 93%
03:00 +14°C° 0.1 mm 2 mps 740 mmHg 93%
04:00 +14°C° 0.1 mm 2 mps 740 mmHg 93%
05:00 +14°C° 0.1 mm 2 mps 740 mmHg 93%
06:00 +15°C° 0 mm 2 mps 740 mmHg 89%
07:00 +17°C° 0 mm 2 mps 741 mmHg 86%
08:00 +18°C° 0 mm 3 mps 741 mmHg 82%
09:00 +20°C° 0.2 mm 3 mps 741 mmHg 77%
10:00 +21°C° 0.2 mm 3 mps 741 mmHg 73%
11:00 +22°C° 0.2 mm 3 mps 741 mmHg 68%
12:00 +24°C° 0.5 mm 3 mps 741 mmHg 67%
13:00 +24°C° 0.5 mm 3 mps 741 mmHg 65%
14:00 +25°C° 0.5 mm 3 mps 741 mmHg 64%
15:00 +25°C° 0.7 mm 3 mps 741 mmHg 66%
16:00 +24°C° 0.7 mm 3 mps 741 mmHg 69%
17:00 +24°C° 0.7 mm 2 mps 741 mmHg 71%
18:00 +23°C° 0.2 mm 2 mps 741 mmHg 74%
19:00 +20°C° 0.2 mm 2 mps 741 mmHg 78%
20:00 +19°C° 0.2 mm 3 mps 741 mmHg 81%
21:00 +18°C° 0 mm 3 mps 742 mmHg 84%
22:00 +17°C° 0 mm 3 mps 742 mmHg 86%
23:00 +16°C° 0 mm 3 mps 742 mmHg 88%

Day after tomorrow, 18 July, Saturday

Time Temperature Precipitation Wind Pressure Humidity
00:00 +14°C° 0 mm 3 mps 742 mmHg 90%
01:00 +14°C° 0 mm 3 mps 743 mmHg 91%
02:00 +14°C° 0 mm 3 mps 743 mmHg 92%
03:00 +14°C° 0 mm 3 mps 743 mmHg 93%
04:00 +14°C° 0 mm 3 mps 743 mmHg 94%
05:00 +14°C° 0 mm 3 mps 743 mmHg 95%
06:00 +16°C° 0 mm 3 mps 743 mmHg 91%
07:00 +18°C° 0 mm 3 mps 743 mmHg 88%
08:00 +19°C° 0 mm 4 mps 744 mmHg 85%
09:00 +20°C° 0.2 mm 4 mps 744 mmHg 81%
10:00 +22°C° 0.2 mm 4 mps 744 mmHg 77%
11:00 +23°C° 0.2 mm 4 mps 744 mmHg 74%
12:00 +23°C° 0.7 mm 4 mps 744 mmHg 72%
13:00 +25°C° 0.7 mm 4 mps 744 mmHg 71%
14:00 +25°C° 0.7 mm 4 mps 744 mmHg 69%
15:00 +25°C° 0.4 mm 3 mps 744 mmHg 71%
16:00 +25°C° 0.4 mm 3 mps 743 mmHg 72%
17:00 +25°C° 0.4 mm 3 mps 743 mmHg 74%
18:00 +24°C° 0.3 mm 3 mps 743 mmHg 78%
19:00 +21°C° 0.3 mm 3 mps 743 mmHg 82%
20:00 +20°C° 0.3 mm 2 mps 744 mmHg 87%
21:00 +19°C° 0 mm 2 mps 744 mmHg 89%
22:00 +18°C° 0 mm 2 mps 744 mmHg 90%
23:00 +17°C° 0 mm 2 mps 744 mmHg 92%

19 July, Sunday

Time Temperature Precipitation Wind Pressure Humidity
00:00 +17°C° 0 mm 3 mps 744 mmHg 93%
01:00 +16°C° 0 mm 3 mps 744 mmHg 93%
02:00 +16°C° 0 mm 3 mps 744 mmHg 94%
03:00 +16°C° 0 mm 3 mps 744 mmHg 94%
04:00 +16°C° 0 mm 3 mps 744 mmHg 94%
05:00 +14°C° 0 mm 3 mps 744 mmHg 94%
06:00 +17°C° 0 mm 3 mps 744 mmHg 91%
07:00 +18°C° 0 mm 3 mps 744 mmHg 88%
08:00 +19°C° 0 mm 3 mps 744 mmHg 85%
09:00 +21°C° 0 mm 4 mps 744 mmHg 81%
10:00 +22°C° 0 mm 4 mps 744 mmHg 76%
11:00 +23°C° 0 mm 4 mps 743 mmHg 72%
12:00 +25°C° 0.1 mm 4 mps 743 mmHg 69%
13:00 +25°C° 0.1 mm 4 mps 743 mmHg 66%
14:00 +26°C° 0.1 mm 4 mps 743 mmHg 64%
15:00 +26°C° 0 mm 4 mps 742 mmHg 64%
16:00 +25°C° 0 mm 3 mps 742 mmHg 65%
17:00 +25°C° 0 mm 3 mps 742 mmHg 66%
18:00 +24°C° 0 mm 3 mps 742 mmHg 70%
19:00 +21°C° 0 mm 3 mps 742 mmHg 75%
20:00 +20°C° 0 mm 2 mps 742 mmHg 79%
21:00 +19°C° 0 mm 2 mps 742 mmHg 80%
22:00 +18°C° 0 mm 2 mps 742 mmHg 81%
23:00 +17°C° 0 mm 2 mps 742 mmHg 82%

20 July, Monday

Time Temperature Precipitation Wind Pressure Humidity
00:00 +17°C° 0 mm 2 mps 742 mmHg 83%
01:00 +16°C° 0 mm 2 mps 741 mmHg 84%
02:00 +16°C° 0 mm 2 mps 741 mmHg 85%
03:00 +16°C° 0 mm 2 mps 741 mmHg 87%
04:00 +15°C° 0 mm 2 mps 741 mmHg 89%
05:00 +15°C° 0 mm 2 mps 741 mmHg 90%
06:00 +17°C° 0 mm 2 mps 741 mmHg 86%
07:00 +18°C° 0 mm 3 mps 741 mmHg 82%
08:00 +20°C° 0 mm 3 mps 741 mmHg 78%
09:00 +21°C° 0 mm 3 mps 741 mmHg 73%
10:00 +22°C° 0 mm 3 mps 740 mmHg 69%
11:00 +25°C° 0 mm 3 mps 740 mmHg 64%
12:00 +25°C° 0.1 mm 3 mps 740 mmHg 63%
13:00 +25°C° 0.1 mm 3 mps 740 mmHg 62%
14:00 +26°C° 0.1 mm 3 mps 739 mmHg 61%
15:00 +25°C° 0 mm 3 mps 739 mmHg 62%
16:00 +25°C° 0 mm 2 mps 739 mmHg 62%
17:00 +25°C° 0 mm 2 mps 739 mmHg 62%
18:00 +24°C° 0 mm 2 mps 739 mmHg 67%
19:00 +22°C° 0 mm 1 mps 738 mmHg 72%
20:00 +21°C° 0 mm 1 mps 738 mmHg 77%
21:00 +20°C° 0 mm 1 mps 738 mmHg 79%
22:00 +19°C° 0 mm 1 mps 738 mmHg 82%
23:00 +18°C° 0 mm 1 mps 738 mmHg 84%

21 July, Tuesday

Time Temperature Precipitation Wind Pressure Humidity
00:00 +16°C° 0 mm 1 mps 738 mmHg 85%
01:00 +16°C° 0 mm 1 mps 738 mmHg 85%
02:00 +15°C° 0 mm 0 mps 738 mmHg 86%
03:00 +14°C° 0 mm 0 mps 738 mmHg 86%
04:00 +14°C° 0 mm 0 mps 738 mmHg 86%
05:00 +14°C° 0 mm 0 mps 737 mmHg 85%
06:00 +16°C° 0 mm 0 mps 737 mmHg 81%
07:00 +18°C° 0 mm 0 mps 737 mmHg 77%
08:00 +20°C° 0 mm 0 mps 737 mmHg 73%
09:00 +23°C° 0.1 mm 1 mps 737 mmHg 69%
10:00 +24°C° 0.1 mm 1 mps 737 mmHg 65%
11:00 +25°C° 0.1 mm 2 mps 737 mmHg 61%
12:00 +25°C° 0.4 mm 3 mps 737 mmHg 65%
13:00 +25°C° 0.4 mm 4 mps 737 mmHg 69%
14:00 +23°C° 0.4 mm 5 mps 737 mmHg 73%
15:00 +22°C° 0.3 mm 5 mps 737 mmHg 76%
16:00 +21°C° 0.3 mm 5 mps 737 mmHg 78%
17:00 +20°C° 0.3 mm 6 mps 737 mmHg 81%
18:00 +19°C° 0 mm 6 mps 737 mmHg 82%
19:00 +17°C° 0 mm 6 mps 738 mmHg 82%
20:00 +16°C° 0 mm 6 mps 738 mmHg 83%
21:00 +14°C° 0 mm 6 mps 738 mmHg 82%
22:00 +13°C° 0 mm 6 mps 739 mmHg 80%
23:00 +12°C° 0 mm 5 mps 739 mmHg 79%
Show more